{"data":{"norad_id":53418,"epoch":"2026-09-19T17:03:39.118752Z","epoch_age_seconds":143517,"freshness":"FRESH","line1":"1 53418U 22097AG  26262.71086943  .00000432  00000+0  23940-4 0  9997","line2":"2 53418  53.1601 297.0853 0001225  77.2526 282.8613 15.34389041228305","mean_motion":15.34389041,"eccentricity":0.0001225,"inclination_deg":53.1601,"raan_deg":297.0853,"arg_perigee_deg":77.2526,"mean_anomaly_deg":282.8613,"bstar":2.394e-5,"rev_number":22830,"period_min":93.848428366089,"perigee_km":461.8978059389,"apogee_km":463.57381977805,"semimajor_km":6840.8728128585,"source":"CELESTRAK","updated_at":"2026-09-20T09:00:40.229271Z"}}